Weather History for Cut Bank, MT

Change the Weather History Date:

Sunday, February 24, 2013

  Actual Average Record
Temperature  
Mean Temperature 30 °F 26 °F  
Max Temperature 40 °F 37 °F 66 °F (1995)
Min Temperature 19 °F 14 °F -27 °F (1922)
Degree Days  
Heating Degree Days 35 39  
Month to date heating degree days 838 987  
Since 1 July heating degree days 5601 5905  
Cooling Degree Days 0 0  
Month to date cooling degree days 0 0  
Year to date cooling degree days 0 0  
Moisture  
Dew Point 16 °F    
Average Humidity 57    
Maximum Humidity 77    
Minimum Humidity 37    
Precipitation  
Precipitation 0.00 in 0.01 in 0.32 in (1919)
Month to date precipitation 0.31 0.17  
Year to date precipitation 0.73 0.37  
Snow  
Snow 0.00 in - - ()
Snow Depth 0.00 in    
Sea Level Pressure  
Sea Level Pressure 30.02 in    
Wind  
Wind Speed 25 mph (WSW)    
Max Wind Speed 38 mph    
Max Gust Speed 46 mph    
Visibility 10 miles    
Events      
T = Trace of Precipitation, MM = Missing Value Source: NWS Daily Summary

Daily Weather History Graph

Daily Weather History Graph

Search for Another Location

Airport:

Trip Planner

Search our weather history database for the weather conditions in past years. The results will help you decide how hot, cold, wet, or windy it might be!

Date:

Astronomy

Feb. 24, 2013 Rise Set
Actual Time 7:20 AM MST 6:05 PM MST
Civil Twilight 6:48 AM MST 6:37 PM MST
Nautical Twilight 6:12 AM MST 7:14 PM MST
Astronomical Twilight 5:35 AM MST 7:50 PM MST
Moon 5:21 PM MST (2/24) 6:21 AM MST (2/24)
Length of Visible Light 11h 49m
Length of Day
10h 45m
Waxing Gibbous, 99% of the Moon is Illuminated
Feb 24
Waxing Gibbous
Feb 25
Full
Mar 4
Last Quarter
Mar 11
New
Mar 19
First Quarter

Hourly Weather History & Observations

Time (MST) Temp. Windchill Dew Point Humidity Pressure Visibility Wind Dir Wind Speed Gust Speed Precip Events Conditions
12:56 AM 23.0 °F 11.1 °F 16.0 °F 74% 30.10 in 10.0 mi WSW 12.7 mph - N/A   Clear
1:56 AM 24.1 °F 11.0 °F 15.1 °F 69% 30.10 in 10.0 mi West 16.1 mph - N/A   Clear
2:56 AM 24.1 °F 11.5 °F 15.1 °F 69% 30.11 in 10.0 mi West 15.0 mph - N/A   Clear
3:56 AM 25.0 °F 11.7 °F 15.1 °F 66% 30.10 in 10.0 mi West 17.3 mph - N/A   Clear
4:56 AM 24.1 °F 11.0 °F 15.1 °F 69% 30.11 in 10.0 mi West 16.1 mph - N/A   Clear
5:56 AM 21.0 °F 9.3 °F 14.0 °F 74% 30.11 in 10.0 mi WSW 11.5 mph - N/A   Clear
6:56 AM 23.0 °F 10.1 °F 14.0 °F 68% 30.10 in 10.0 mi WSW 15.0 mph - N/A   Clear
7:56 AM 25.0 °F 12.6 °F 14.0 °F 63% 30.09 in 10.0 mi WSW 15.0 mph - N/A   Clear
8:56 AM 30.9 °F 18.4 °F 15.1 °F 52% 30.07 in 10.0 mi WSW 20.7 mph 27.6 mph N/A   Clear
9:56 AM 35.1 °F 21.6 °F 15.1 °F 44% 30.06 in 10.0 mi West 31.1 mph 36.8 mph N/A   Clear
10:56 AM 37.9 °F 26.1 °F 15.1 °F 39% 30.04 in 10.0 mi WSW 27.6 mph 39.1 mph N/A   Clear
11:56 AM 39.0 °F 28.0 °F 16.0 °F 39% 30.03 in 10.0 mi WSW 25.3 mph 39.1 mph N/A   Clear
12:56 PM 37.9 °F 25.5 °F 16.0 °F 41% 30.01 in 10.0 mi WSW 31.1 mph 41.4 mph N/A   Clear
1:56 PM 39.0 °F 26.8 °F 17.1 °F 41% 29.98 in 10.0 mi WSW 32.2 mph 39.1 mph N/A   Clear
2:56 PM 39.0 °F 26.2 °F 17.1 °F 41% 29.97 in 10.0 mi WSW 35.7 mph 40.3 mph N/A   Clear
3:56 PM 37.0 °F 24.1 °F 17.1 °F 44% 29.97 in 10.0 mi WSW 32.2 mph 41.4 mph N/A   Clear
4:56 PM 34.0 °F 19.7 °F 16.0 °F 48% 29.98 in 10.0 mi WSW 33.4 mph 40.3 mph N/A   Clear
5:56 PM 32.0 °F 17.0 °F 16.0 °F 52% 29.98 in 10.0 mi WSW 33.4 mph 41.4 mph N/A   Clear
6:56 PM 32.0 °F 16.7 °F 16.0 °F 52% 29.94 in 10.0 mi WSW 34.5 mph 43.7 mph N/A   Clear
7:56 PM 32.0 °F 16.7 °F 16.0 °F 52% 29.93 in 10.0 mi West 34.5 mph 46.0 mph N/A   Clear
8:56 PM 30.9 °F 16.2 °F 17.1 °F 57% 29.94 in 10.0 mi West 29.9 mph 41.4 mph N/A   Clear
9:56 PM 30.9 °F 15.5 °F 17.1 °F 57% 29.89 in 10.0 mi West 33.4 mph 41.4 mph N/A   Clear
10:56 PM 32.0 °F 18.4 °F 18.0 °F 56% 29.91 in 10.0 mi WSW 26.5 mph 36.8 mph N/A   Clear
11:56 PM 30.9 °F 17.5 °F 18.0 °F 59% 29.91 in 10.0 mi WSW 24.2 mph - N/A   Clear